STARLINK-4423, 53209

Orbit data source: Space-Track

STARLINK-4423, 53209 is a payload satellite owned by SpaceX/Seattle (US) in SSO that was launched on Fri, 22 Jul 2022 UTC via an FALCON 9 launch vehicle from the Air Force Western Test Range (AFWTR). Payload-class satellites include a variety of spacecraft equipped with specific instruments for various scientific and technological missions. These include communications satellites like Starlink; space stations such as the ISS; scientific satellites like the Hubble; Earth observation satellites from companies like Planet Labs, Umbra, and HawkEye 360; GPS; miniature CubeSats for education and research; and military/defense satellites.

Loading next visibility...
Identifier
53209, 2022-084W
Orbit
SSO
Country
Flag of USUS
Related business
Manufacturer
SpaceX/Seattle
Mission
Operational Commercial Communications
Bus & Motor
STARLINK, Unknown motor
Mass
297 kg wet, ~275 kg dry
Launch date (UTC)
2022-07-22 (4 years ago)
Launch vehicle
FALCON 9
Launch site
Air Force Western Test Range (AFWTR)
Object type
Payload
Rocket body
Debris
Shape & HBR
Box + 1 Pan, 10.1 m
Radar Cross Section
13.562 m², Large (>1 m²)

Expand to show TLE details & history
Last TLE update: 3 days ago

TLE from 3 days ago
0 STARLINK-4423
1 53209U 22084W   26170.91012765  .00004475  00000-0  31406-3 0  9999
2 53209  97.3371 229.8607 0001645 112.7131 247.4271 15.05635117214690
Epoch: 2026-06-19T21:50Z
TLE epoch observation values (Epoch: 2026-06-19T21:50:35.028Z)
Latitude
-0.00001°
Longitude
-5.91758°
Altitude
553.067 km
Speed
7.585 km/s
True Right ascension
15h 19m 26s
True Declination
0° 00' 00"
Sunlit
Object was in full shadow at epoch
Visualization orbit readout
Latitude
Unknown
Longitude
Unknown
Altitude
Unknown
Speed
Unknown
Apparent Right ascension
Unknown
Apparent Declination
Unknown
Sunlit
N/A
Visualization observer readout
Local Sidereal Time
21:27:22
Azimuth
Unknown
Elevation
Unknown
Doppler factor
Unknown
Orbital elements
Apogee altitude
547.678 km
Perigee altitude
545.4 km
Semi-major axis
6,924.676 km
Eccentricity
0.00016
Inclination
97.3371°
RAAN
229.8607°
Arg. of periapsis
112.7131°
True anomaly
247.4097°
Mean anomaly
247.4271°
Eccentric anomaly
247.4184°
Mean motion
3.76655 °/min
Orbital period
95.58 mins
BSTAR
0.00031406
Loading maneuver chart data...
Computing Atmospheric mass density...
Loading historical data...
Loading historical data...
Loading historical data...
Loading historical data...
Loading historical data...
Loading historical data...
Loading historical data...

Documentation

Showing up to 5 results
|